Total_Precipitation_Accumulation
0.00 0.00 0.00 0.00 0.01 0.01 0.02 0.03 0.05 0.08 0.09 0.09 0.11 0.11 0.11 0.11 0.08 0.08 0.05 0.04 0.02 0.01 0.00 0.02 0.08 0.29 0.45 0.38 0.36 0.34 0.25 0.12 0.03 0.01 0.00 0.00 0.00 0.00 0.00 0.00 0.01 0.02 0.01
0.00 0.00 0.00 0.00 0.00 0.00 0.00 0.00 0.01 0.02 0.02 0.03 0.04 0.05 0.07 0.08 0.08 0.10 0.09 0.08 0.04 0.01 0.00 0.00 0.03 0.10 0.30 0.40 0.39 0.47 0.39 0.23 0.10 0.03 0.01 0.00 0.00 0.00 0.00 0.00 0.00 0.01 0.01
0.00 0.00 0.00 0.00 0.00 0.00 0.00 0.00 0.00 0.00 0.00 0.01 0.01 0.01 0.02 0.03 0.04 0.06 0.07 0.08 0.07 0.03 0.01 0.00 0.01 0.04 0.10 0.22 0.33 0.46 0.58 0.38 0.23 0.10 0.04 0.01 0.00 0.00 0.00 0.00 0.00 0.01 0.01
0.00 0.00 0.00 0.00 0.00 0.00 0.00 0.00 0.00 0.00 0.00 0.00 0.00 0.00 0.00 0.00 0.01 0.02 0.02 0.04 0.06 0.06 0.02 0.00 0.00 0.02 0.04 0.11 0.20 0.36 0.73 0.66 0.45 0.28 0.15 0.06 0.01 0.00 0.00 0.00 0.00 0.00 0.01
0.00 0.00 0.00 0.00 0.00 0.00 0.00 0.00 0.00 0.00 0.00 0.00 0.00 0.00 0.00 0.00 0.00 0.00 0.00 0.01 0.02 0.04 0.04 0.01 0.00 0.01 0.03 0.05 0.11 0.25 0.69 0.86 0.75 0.59 0.38 0.18 0.07 0.02 0.00 0.00 0.00 0.00 0.00
0.00 0.00 0.00 0.00 0.00 0.00 0.00 0.00 0.00 0.00 0.00 0.00 0.00 0.00 0.00 0.00 0.00 0.00 0.00 0.00 0.00 0.01 0.02 0.01 0.01 0.00 0.01 0.02 0.03 0.09 0.31 0.56 0.67 0.69 0.62 0.44 0.21 0.06 0.01 0.00 0.00 0.00 0.00
0.00 0.00 0.00 0.00 0.00 0.00 0.00 0.00 0.00 0.00 0.00 0.01 0.01 0.01 0.00 0.00 0.00 0.00 0.00 0.00 0.00 0.00 0.00 0.01 0.01 0.01 0.01 0.01 0.03 0.03 0.07 0.18 0.28 0.41 0.51 0.51 0.42 0.21 0.05 0.01 0.00 0.00 0.00
0.00 0.00 0.00 0.00 0.00 0.00 0.00 0.00 0.00 0.00 0.00 0.01 0.02 0.03 0.01 0.00 0.00 0.00 0.00 0.00 0.00 0.00 0.00 0.00 0.01 0.01 0.01 0.01 0.01 0.01 0.03 0.08 0.12 0.18 0.31 0.42 0.45 0.39 0.17 0.03 0.01 0.00 0.00
0.00 0.00 0.00 0.00 0.00 0.00 0.00 0.00 0.00 0.01 0.01 0.01 0.01 0.04 0.05 0.02 0.01 0.00 0.00 0.01 0.01 0.01 0.00 0.00 0.01 0.01 0.02 0.03 0.04 0.01 0.01 0.04 0.08 0.09 0.14 0.30 0.41 0.43 0.34 0.16 0.04 0.01 0.00
0.00 0.00 0.00 0.00 0.00 0.00 0.01 0.01 0.01 0.01 0.02 0.02 0.01 0.02 0.04 0.04 0.05 0.02 0.01 0.02 0.03 0.03 0.02 0.00 0.00 0.01 0.02 0.04 0.05 0.04 0.02 0.02 0.06 0.10 0.10 0.15 0.35 0.42 0.43 0.34 0.18 0.06 0.01
0.00 0.00 0.00 0.00 0.00 0.00 0.01 0.01 0.01 0.02 0.02 0.03 0.03 0.02 0.02 0.02 0.03 0.04 0.03 0.02 0.04 0.04 0.03 0.02 0.02 0.02 0.02 0.03 0.04 0.05 0.05 0.05 0.10 0.13 0.16 0.19 0.31 0.41 0.50 0.47 0.36 0.18 0.07
0.01 0.01 0.00 0.00 0.00 0.01 0.01 0.01 0.02 0.02 0.03 0.03 0.03 0.03 0.03 0.02 0.02 0.04 0.05 0.03 0.02 0.02 0.03 0.04 0.04 0.05 0.05 0.04 0.04 0.05 0.05 0.07 0.12 0.15 0.15 0.22 0.34 0.43 0.53 0.53 0.39 0.24 0.15
0.02 0.01 0.00 0.00 0.00 0.01 0.01 0.02 0.03 0.03 0.02 0.03 0.03 0.03 0.03 0.03 0.03 0.04 0.05 0.05 0.03 0.02 0.01 0.02 0.03 0.05 0.07 0.06 0.05 0.06 0.05 0.05 0.07 0.11 0.14 0.17 0.24 0.35 0.50 0.61 0.52 0.32 0.21
0.02 0.01 0.00 0.00 0.00 0.01 0.01 0.02 0.03 0.02 0.02 0.02 0.02 0.02 0.03 0.03 0.03 0.03 0.04 0.05 0.05 0.04 0.02 0.01 0.01 0.02 0.05 0.07 0.05 0.04 0.03 0.03 0.03 0.06 0.11 0.15 0.19 0.27 0.38 0.49 0.58 0.51 0.40
0.01 0.00 0.00 0.00 0.00 0.01 0.02 0.03 0.02 0.02 0.02 0.02 0.02 0.02 0.03 0.03 0.03 0.03 0.03 0.04 0.05 0.05 0.03 0.01 0.01 0.01 0.04 0.08 0.06 0.04 0.03 0.02 0.01 0.02 0.04 0.10 0.16 0.22 0.30 0.40 0.49 0.55 0.56
0.00 0.00 0.00 0.00 0.01 0.02 0.02 0.03 0.02 0.02 0.02 0.02 0.03 0.04 0.04 0.05 0.07 0.09 0.08 0.06 0.05 0.05 0.04 0.01 0.01 0.01 0.04 0.11 0.10 0.05 0.05 0.04 0.02 0.01 0.02 0.03 0.09 0.16 0.24 0.31 0.39 0.44 0.47
0.00 0.00 0.00 0.01 0.02 0.02 0.03 0.04 0.03 0.02 0.02 0.02 0.03 0.05 0.07 0.09 0.14 0.18 0.20 0.17 0.11 0.08 0.06 0.02 0.01 0.02 0.06 0.13 0.11 0.06 0.06 0.05 0.03 0.02 0.02 0.02 0.05 0.10 0.19 0.26 0.28 0.29 0.33
0.00 0.00 0.01 0.01 0.02 0.03 0.04 0.05 0.05 0.04 0.03 0.05 0.07 0.09 0.11 0.14 0.18 0.24 0.29 0.27 0.20 0.14 0.11 0.06 0.03 0.02 0.06 0.13 0.14 0.09 0.07 0.07 0.04 0.03 0.02 0.03 0.05 0.09 0.14 0.20 0.25 0.25 0.25
0.00 0.00 0.01 0.01 0.03 0.07 0.06 0.05 0.08 0.07 0.04 0.04 0.07 0.12 0.15 0.18 0.17 0.22 0.27 0.29 0.26 0.20 0.16 0.12 0.06 0.03 0.05 0.12 0.15 0.12 0.11 0.10 0.08 0.06 0.04 0.04 0.05 0.08 0.11 0.14 0.17 0.20 0.21
0.00 0.00 0.01 0.01 0.03 0.07 0.08 0.12 0.15 0.09 0.04 0.03 0.05 0.09 0.16 0.23 0.24 0.25 0.21 0.23 0.27 0.25 0.21 0.18 0.13 0.07 0.06 0.12 0.17 0.13 0.11 0.12 0.10 0.09 0.07 0.05 0.05 0.07 0.09 0.09 0.09 0.10 0.13
0.00 0.00 0.00 0.00 0.01 0.04 0.09 0.22 0.22 0.07 0.04 0.05 0.06 0.10 0.17 0.28 0.37 0.40 0.33 0.25 0.26 0.29 0.29 0.26 0.22 0.15 0.11 0.13 0.18 0.17 0.14 0.14 0.13 0.11 0.07 0.05 0.04 0.03 0.05 0.09 0.11 0.09 0.08
0.00 0.00 0.00 0.00 0.00 0.02 0.08 0.25 0.21 0.05 0.03 0.07 0.11 0.13 0.18 0.31 0.40 0.41 0.40 0.32 0.29 0.31 0.33 0.32 0.30 0.25 0.18 0.15 0.19 0.24 0.21 0.17 0.16 0.13 0.06 0.05 0.04 0.03 0.03 0.04 0.07 0.08 0.06
0.00 0.00 0.00 0.00 0.00 0.01 0.07 0.29 0.20 0.03 0.03 0.08 0.10 0.11 0.14 0.22 0.26 0.28 0.27 0.24 0.25 0.31 0.37 0.39 0.37 0.33 0.29 0.26 0.27 0.30 0.28 0.20 0.16 0.18 0.10 0.09 0.07 0.04 0.03 0.04 0.05 0.05 0.04
0.00 0.00 0.00 0.00 0.00 0.00 0.06 0.31 0.19 0.02 0.04 0.09 0.12 0.08 0.06 0.12 0.16 0.17 0.19 0.21 0.24 0.30 0.39 0.45 0.48 0.45 0.40 0.40 0.41 0.44 0.43 0.30 0.21 0.22 0.14 0.18 0.18 0.09 0.06 0.05 0.04 0.02 0.02
0.00 0.00 0.00 0.00 0.00 0.00 0.05 0.31 0.22 0.02 0.04 0.09 0.13 0.11 0.04 0.03 0.08 0.07 0.08 0.14 0.17 0.25 0.33 0.39 0.38 0.35 0.34 0.42 0.53 0.60 0.62 0.46 0.32 0.30 0.21 0.17 0.25 0.25 0.19 0.13 0.08 0.04 0.01
0.00 0.00 0.00 0.00 0.00 0.00 0.04 0.25 0.27 0.03 0.03 0.06 0.09 0.09 0.08 0.04 0.02 0.02 0.03 0.05 0.09 0.15 0.19 0.23 0.25 0.24 0.24 0.31 0.45 0.65 0.81 0.68 0.45 0.37 0.29 0.19 0.20 0.23 0.29 0.25 0.14 0.06 0.02